Location: Hilton Head Island
(32.2163°N, 80.7526°W)
Time: 14:44:54
(UTC-04:00)

Tiros 1 despin weight - Pass Details

Date: 20 February 2026
Orbit: 556 x 593 km, 48.2° (Epoch: 10 March)

Event Time Altitude Azimuth Distance (km) Brightness Sun altitude
Rises 15:16:29 0° 277° (W) 2,743 ? 32.6°
Reaches altitude 10° 15:19:29 10° 299° (WNW) 1,843 ? 32.1°
Maximum altitude 15:22:09 16° 338° (NNW) 1,488 ? 31.7°
Drops below altitude 10° 15:24:47 10° 18° (NNE) 1,838 ? 31.2°
Sets 15:27:47 0° 40° (NE) 2,732 ? 30.8°
